• In Netherlands
  • List of Countries
  • For 7 days
  • Water Temperature
  • Satellite Maps
  • Weather Map
  • Weather Widgets
  • user-avatar
    Login

    Hourly Weather Namyur

    Today, 29 May, Monday

    Time Temperature Precipitation Wind Pressure Humidity
    00:00 +20°C° 0 mm 2 mps 751 mmHg 90%
    01:00 +19°C° 0.1 mm 2 mps 751 mmHg 90%
    02:00 +19°C° 0.1 mm 2 mps 750 mmHg 91%
    03:00 +19°C° 0.1 mm 2 mps 750 mmHg 91%
    04:00 +20°C° 0 mm 2 mps 750 mmHg 90%
    05:00 +21°C° 0 mm 2 mps 749 mmHg 89%
    06:00 +21°C° 0 mm 3 mps 749 mmHg 88%
    07:00 +24°C° 0 mm 3 mps 749 mmHg 83%
    08:00 +25°C° 0 mm 3 mps 749 mmHg 79%
    09:00 +26°C° 0 mm 4 mps 749 mmHg 75%
    10:00 +27°C° 0 mm 4 mps 749 mmHg 74%
    11:00 +28°C° 0 mm 4 mps 749 mmHg 73%
    12:00 +28°C° 0 mm 3 mps 749 mmHg 72%
    13:00 +28°C° 0.3 mm 3 mps 748 mmHg 73%
    14:00 +28°C° 0.3 mm 3 mps 748 mmHg 75%
    15:00 +28°C° 0.3 mm 3 mps 748 mmHg 76%
    16:00 +27°C° 0.6 mm 2 mps 748 mmHg 81%
    17:00 +26°C° 0.6 mm 2 mps 748 mmHg 85%
    18:00 +25°C° 0.6 mm 2 mps 748 mmHg 89%
    19:00 +23°C° 0.3 mm 2 mps 748 mmHg 91%
    20:00 +21°C° 0.3 mm 2 mps 749 mmHg 93%
    21:00 +19°C° 0.3 mm 2 mps 749 mmHg 95%
    22:00 +18°C° 0.1 mm 2 mps 749 mmHg 96%
    23:00 +17°C° 0.1 mm 2 mps 749 mmHg 96%

    Tomorrow, 30 May, Tuesday

    Time Temperature Precipitation Wind Pressure Humidity
    00:00 +17°C° 0.1 mm 2 mps 749 mmHg 97%
    01:00 +17°C° 0 mm 2 mps 749 mmHg 97%
    02:00 +17°C° 0 mm 2 mps 749 mmHg 97%
    03:00 +16°C° 0 mm 2 mps 750 mmHg 97%
    04:00 +16°C° 0 mm 3 mps 750 mmHg 96%
    05:00 +16°C° 0 mm 3 mps 750 mmHg 95%
    06:00 +16°C° 0 mm 3 mps 750 mmHg 94%
    07:00 +17°C° 0 mm 3 mps 751 mmHg 89%
    08:00 +18°C° 0 mm 4 mps 751 mmHg 83%
    09:00 +20°C° 0 mm 4 mps 751 mmHg 78%
    10:00 +20°C° 0 mm 4 mps 752 mmHg 76%
    11:00 +21°C° 0 mm 4 mps 752 mmHg 74%
    12:00 +22°C° 0 mm 5 mps 752 mmHg 71%
    13:00 +22°C° 0 mm 5 mps 752 mmHg 72%
    14:00 +22°C° 0 mm 5 mps 752 mmHg 72%
    15:00 +22°C° 0 mm 5 mps 752 mmHg 73%
    16:00 +21°C° 0 mm 4 mps 752 mmHg 76%
    17:00 +20°C° 0 mm 4 mps 752 mmHg 80%
    18:00 +20°C° 0 mm 4 mps 753 mmHg 83%
    19:00 +18°C° 0 mm 3 mps 753 mmHg 87%
    20:00 +17°C° 0 mm 3 mps 753 mmHg 90%
    21:00 +14°C° 0 mm 3 mps 754 mmHg 94%
    22:00 +14°C° 0 mm 2 mps 754 mmHg 94%
    23:00 +14°C° 0 mm 2 mps 754 mmHg 95%

    Day after tomorrow, 31 May, Wednesday

    Time Temperature Precipitation Wind Pressure Humidity
    00:00 +13°C° 0 mm 2 mps 754 mmHg 96%
    01:00 +12°C° 0 mm 2 mps 754 mmHg 96%
    02:00 +12°C° 0 mm 2 mps 754 mmHg 96%
    03:00 +10°C° 0 mm 2 mps 755 mmHg 97%
    04:00 +12°C° 0 mm 2 mps 755 mmHg 95%
    05:00 +14°C° 0 mm 2 mps 755 mmHg 94%
    06:00 +15°C° 0 mm 1 mps 756 mmHg 93%
    07:00 +16°C° 0 mm 2 mps 756 mmHg 89%
    08:00 +17°C° 0 mm 2 mps 756 mmHg 85%
    09:00 +18°C° 0 mm 2 mps 756 mmHg 81%
    10:00 +19°C° 0 mm 2 mps 756 mmHg 76%
    11:00 +20°C° 0 mm 2 mps 756 mmHg 71%
    12:00 +21°C° 0 mm 3 mps 756 mmHg 66%
    13:00 +21°C° 0 mm 3 mps 756 mmHg 66%
    14:00 +21°C° 0 mm 4 mps 756 mmHg 65%
    15:00 +21°C° 0 mm 4 mps 756 mmHg 64%
    16:00 +20°C° 0 mm 4 mps 755 mmHg 69%
    17:00 +19°C° 0 mm 4 mps 755 mmHg 73%
    18:00 +18°C° 0 mm 3 mps 755 mmHg 77%
    19:00 +16°C° 0 mm 3 mps 756 mmHg 82%
    20:00 +13°C° 0 mm 3 mps 756 mmHg 86%
    21:00 +11°C° 0 mm 3 mps 756 mmHg 90%
    22:00 +10°C° 0 mm 3 mps 756 mmHg 91%
    23:00 +9°C° 0 mm 2 mps 756 mmHg 92%

    1 June, Thursday

    Time Temperature Precipitation Wind Pressure Humidity
    00:00 +9°C° 0 mm 2 mps 756 mmHg 93%
    01:00 +8°C° 0 mm 2 mps 756 mmHg 93%
    02:00 +8°C° 0 mm 2 mps 756 mmHg 93%
    03:00 +7°C° 0 mm 2 mps 756 mmHg 93%
    04:00 +8°C° 0 mm 2 mps 756 mmHg 90%
    05:00 +10°C° 0 mm 2 mps 756 mmHg 87%
    06:00 +12°C° 0 mm 2 mps 756 mmHg 84%
    07:00 +14°C° 0 mm 2 mps 756 mmHg 77%
    08:00 +15°C° 0 mm 2 mps 756 mmHg 71%
    09:00 +17°C° 0 mm 3 mps 756 mmHg 64%
    10:00 +18°C° 0 mm 2 mps 755 mmHg 60%
    11:00 +19°C° 0 mm 2 mps 755 mmHg 57%
    12:00 +20°C° 0 mm 2 mps 755 mmHg 53%
    13:00 +21°C° 0 mm 2 mps 755 mmHg 53%
    14:00 +21°C° 0 mm 2 mps 754 mmHg 53%
    15:00 +21°C° 0 mm 2 mps 754 mmHg 53%
    16:00 +21°C° 0 mm 2 mps 754 mmHg 60%
    17:00 +20°C° 0 mm 2 mps 754 mmHg 66%
    18:00 +20°C° 0 mm 2 mps 753 mmHg 73%
    19:00 +17°C° 0 mm 2 mps 754 mmHg 76%
    20:00 +15°C° 0 mm 2 mps 754 mmHg 80%
    21:00 +13°C° 0 mm 2 mps 754 mmHg 83%
    22:00 +13°C° 0 mm 2 mps 754 mmHg 84%
    23:00 +12°C° 0 mm 2 mps 754 mmHg 85%

    2 June, Friday

    Time Temperature Precipitation Wind Pressure Humidity
    00:00 +10°C° 0 mm 2 mps 754 mmHg 86%
    01:00 +10°C° 0 mm 2 mps 753 mmHg 86%
    02:00 +10°C° 0 mm 1 mps 753 mmHg 86%
    03:00 +10°C° 0 mm 1 mps 753 mmHg 85%
    04:00 +12°C° 0 mm 1 mps 753 mmHg 82%
    05:00 +14°C° 0 mm 1 mps 753 mmHg 78%
    06:00 +16°C° 0 mm 1 mps 753 mmHg 75%
    07:00 +19°C° 0 mm 1 mps 753 mmHg 71%
    08:00 +20°C° 0 mm 1 mps 753 mmHg 67%
    09:00 +22°C° 0 mm 1 mps 753 mmHg 64%
    10:00 +21°C° 0 mm 0 mps 753 mmHg 61%
    11:00 +22°C° 0 mm 0 mps 753 mmHg 58%
    12:00 +23°C° 0 mm 0 mps 753 mmHg 55%
    13:00 +25°C° 0 mm 1 mps 753 mmHg 55%
    14:00 +25°C° 0 mm 1 mps 752 mmHg 55%
    15:00 +25°C° 0 mm 1 mps 752 mmHg 55%
    16:00 +24°C° 0 mm 1 mps 752 mmHg 62%
    17:00 +24°C° 0 mm 2 mps 752 mmHg 68%
    18:00 +23°C° 0 mm 2 mps 751 mmHg 74%
    19:00 +20°C° 0 mm 2 mps 752 mmHg 76%
    20:00 +19°C° 0 mm 2 mps 752 mmHg 78%
    21:00 +17°C° 0 mm 3 mps 752 mmHg 79%
    22:00 +17°C° 0 mm 3 mps 752 mmHg 80%
    23:00 +16°C° 0 mm 3 mps 751 mmHg 82%

    3 June, Saturday

    Time Temperature Precipitation Wind Pressure Humidity
    00:00 +16°C° 0 mm 3 mps 751 mmHg 83%
    01:00 +16°C° 0 mm 3 mps 751 mmHg 83%
    02:00 +14°C° 0 mm 3 mps 751 mmHg 84%
    03:00 +14°C° 0 mm 3 mps 750 mmHg 84%
    04:00 +16°C° 0 mm 3 mps 750 mmHg 83%
    05:00 +17°C° 0 mm 3 mps 750 mmHg 81%
    06:00 +18°C° 0 mm 3 mps 750 mmHg 80%
    07:00 +20°C° 0 mm 3 mps 750 mmHg 77%
    08:00 +21°C° 0 mm 4 mps 750 mmHg 74%
    09:00 +23°C° 0 mm 4 mps 750 mmHg 70%
    10:00 +25°C° 0.1 mm 4 mps 750 mmHg 70%
    11:00 +26°C° 0.1 mm 4 mps 749 mmHg 69%
    12:00 +27°C° 0.1 mm 4 mps 749 mmHg 68%
    13:00 +27°C° 0.2 mm 4 mps 749 mmHg 69%
    14:00 +27°C° 0.2 mm 4 mps 748 mmHg 70%
    15:00 +27°C° 0.2 mm 3 mps 748 mmHg 70%
    16:00 +26°C° 0.5 mm 3 mps 748 mmHg 76%
    17:00 +25°C° 0.5 mm 2 mps 748 mmHg 82%
    18:00 +24°C° 0.5 mm 2 mps 748 mmHg 88%
    19:00 +23°C° 1.5 mm 2 mps 748 mmHg 91%
    20:00 +21°C° 1.5 mm 2 mps 748 mmHg 94%
    21:00 +19°C° 1.5 mm 2 mps 749 mmHg 97%
    22:00 +19°C° 0.6 mm 2 mps 749 mmHg 97%
    23:00 +19°C° 0.6 mm 2 mps 749 mmHg 97%
    Show more